x

Isle Of Portland (03857) Weather Station

8:00 - Tue 9th Feb 2016 All times are GMT.

  • Wind
    13mph
  • Air Temp 42°f
  • Sea Pressure 987mb
  • Isle Of Portland
  • Isle Of Portland

More Historic Weather Station data

Upgrade to MSW Pro to gain access to the past 30 days of data for over 8000 Wavebouys and Weather Stations around the globe.

Join Pro

Comparision Forecast

View Surf forecast
   
mar. 02/09 8:00 13
mph
987mb 42f
7:00 9
mph
988mb 44f
6:00 8 33 mph 989mb 42f
5:00 15
mph
990mb 44f
4:00 19
mph
991mb 47f
3:00 21 36 mph 994mb 47f
2:00 29 45 mph 995mb 47f
1:00 32 47 mph 996mb 47f
lun. 02/08 11:00 37 47 mph 996mb 47f
10:00 31 48 mph 997mb 47f
8:00 41 54 mph 997mb 47f
7:00 40 59 mph 997mb 48f
6:00 44 60 mph 995mb 48f
3:00 52 70 mph 992mb 49f
2:00 49 69 mph 991mb 48f
1:00 47 74 mph 990mb 49f
12:00 45 79 mph 989mb 48f
11:00 45 67 mph 988mb 49f
10:00 45 68 mph 988mb 48f
9:00 45 68 mph 987mb 48f
8:00 45 66 mph 987mb 47f
7:00 46 63 mph 986mb 47f
6:00 44 63 mph 986mb 47f
5:00 38 70 mph 986mb 46f
4:00 40 57 mph 986mb 46f
3:00 37 64 mph 987mb 47f
2:00 38 62 mph 986mb 47f
1:00 43 69 mph 986mb 49f
12:00 37 47 mph 987mb 51f
dim. 02/07 11:00 32 67 mph 988mb 47f
10:00 36 69 mph 988mb 51f
9:00 36 49 mph 988mb 51f
8:00 37 56 mph 990mb 50f
7:00 36 53 mph 992mb 49f
6:00 33 47 mph 993mb 48f
4:00 31 49 mph 996mb 46f
3:00 32 49 mph 997mb 48f
2:00 29 41 mph 997mb 47f
1:00 31 49 mph 997mb 48f
12:00 26 54 mph 997mb 48f
11:00 33 44 mph 997mb 48f
10:00 31 45 mph 996mb 47f
9:00 33 45 mph 995mb 46f
8:00 33 47 mph 994mb 46f
7:00 31 43 mph 993mb 46f
6:00 31 43 mph 993mb 45f
5:00 32 41 mph 992mb 45f
4:00 31 44 mph 992mb 44f
3:00 28 51 mph 991mb 45f
2:00 28 41 mph 990mb 47f
1:00 24 39 mph 990mb 47f
sam. 02/06 11:00 28 37 mph 989mb 47f
10:00 17 46 mph 988mb 46f
9:00 33 45 mph 987mb 45f
8:00 25 46 mph 986mb 48f
6:00 43 55 mph 987mb 49f
5:00 37 56 mph 988mb 50f
4:00 34 49 mph 990mb 51f
2:00 31 45 mph 992mb 51f
1:00 30 49 mph 994mb 52f
12:00 31 49 mph 995mb 52f
11:00 32 46 mph 997mb 52f
10:00 32 45 mph 998mb 51f
9:00 29 45 mph 999mb 51f
7:00 29 41 mph 1001mb 50f
6:00 28 38 mph 1003mb 50f
5:00 28 38 mph 1004mb 50f
4:00 26 34 mph 1005mb 50f
3:00 25 33 mph 1006mb 51f
2:00 22 31 mph 1007mb 50f
1:00 25 34 mph 1008mb 50f
12:00 24 32 mph 1009mb 50f
ven. 02/05 11:00 24 36 mph 1009mb 50f
10:00 26 37 mph 1010mb 51f
8:00 29 41 mph 1011mb 50f
7:00 25 40 mph 1013mb 50f
6:00 21 34 mph 1013mb 50f
5:00 23 31 mph 1014mb 51f
4:00 19 31 mph 1015mb 50f
3:00 19 30 mph 1016mb 51f
2:00 22 30 mph 1017mb 51f
1:00 18
mph
1018mb 51f
12:00 19 31 mph 1020mb 49f
11:00 23 31 mph 1020mb 49f
10:00 28 37 mph 1021mb 49f